sat.trackr.live / text

‹ back to catalog

STARLINK-32236

NORAD 60418 · 2024-141W

PAYLOAD ACTIVE UNKNOWN

§ Identity

Operator
Country
US
Launch date
2024-08-10
Launch site
AFETR
Launch vehicle
Mass (kg)
RCS (m²)

Purposes: comms

External: N2YO · Heavens-Above · Gunter

§ Orbital elements

Epoch: 2026-09-21T14:40:56.837280Z

Period
93.85 min
Inclination
53.1607°
Eccentricity
0.0001161
Mean motion
15.34389538 rev/d
Perigee alt
461.9 km
Apogee alt
463.5 km
Semi-major
6,840.9 km
B*
1.5643e-5
RAAN
48.5414°
Arg perigee
74.6074°
Mean anomaly
285.5057°
Rev number
11,963

§ Raw data

STARLINK-322361 60418U 24141W   26264.61176895  .00000152  00000+0  15643-4 0  99942 60418  53.1607  48.5414 0001161  74.6074 285.5057 15.34389538119637

JSON: /api/v1/satellites/60418 · /tle

For live sub-satellite position, see the globe view (requires WebGL).

§ Visibility from observer

Set your observer location to see the next 7 days of passes ≥ 10°. The values pass through the URL so the page stays shareable.

No JS? Fill the form by hand. The geolocation button needs JavaScript.